PHENX48 YMES-YPED

Flight info

Callsign PHENX48
Flight time 1h 26m
Altitude 36000
Route DUNNE DCT BADGR N759 ML H345 AD
Aircraft B738/M-SDE2E3FGHIRWXY/LB1

Departure

Time 2026-04-12 06:42
Airport RAAF Base East Sale (YMES)

Arrival

Time 2026-04-12 08:08
Airport RAAF Base Edinburgh (YPED)
Time Latitude Longitude Altitude Speed Heading
2026-04-12 06:23 -38.09842 147.12807 35 ft 0 kts 103°
2026-04-12 06:36 -38.09842 147.12851 35 ft 6 kts 79°
2026-04-12 06:36 -38.09821 147.12904 35 ft 6 kts 50°
2026-04-12 06:36 -38.09795 147.12955 34 ft 6 kts 73°
2026-04-12 06:36 -38.09798 147.13025 34 ft 10 kts 99°
2026-04-12 06:37 -38.09811 147.13124 35 ft 11 kts 100°
2026-04-12 06:37 -38.09825 147.13225 34 ft 12 kts 100°
2026-04-12 06:37 -38.09834 147.13292 34 ft 0 kts 95°
2026-04-12 06:37 -38.09830 147.13322 34 ft 6 kts 65°
2026-04-12 06:38 -38.09787 147.13361 33 ft 0 kts 27°
2026-04-12 06:38 -38.09768 147.13402 32 ft 13 kts 86°
2026-04-12 06:38 -38.09781 147.13531 31 ft 15 kts 100°
2026-04-12 06:38 -38.09800 147.13664 30 ft 15 kts 101°
2026-04-12 06:39 -38.09818 147.13808 30 ft 16 kts 95°
2026-04-12 06:39 -38.09832 147.13954 29 ft 17 kts 99°
2026-04-12 06:39 -38.09852 147.14105 29 ft 17 kts 100°
2026-04-12 06:39 -38.09874 147.14261 28 ft 18 kts 100°
2026-04-12 06:40 -38.09894 147.14424 27 ft 19 kts 99°
2026-04-12 06:40 -38.09913 147.14575 26 ft 20 kts 99°
2026-04-12 06:40 -38.09935 147.14754 25 ft 20 kts 98°
2026-04-12 06:40 -38.09957 147.14937 25 ft 21 kts 98°
2026-04-12 06:41 -38.09979 147.15118 26 ft 21 kts 99°
2026-04-12 06:41 -38.09966 147.15295 26 ft 20 kts 47°
2026-04-12 06:41 -38.09866 147.15288 26 ft 16 kts 283°
2026-04-12 06:41 -38.09822 147.14918 25 ft 93 kts 279°
2026-04-12 06:42 -38.09661 147.13689 223 ft 178 kts 278°
2026-04-12 06:42 -38.09439 147.12033 1313 ft 205 kts 276°
2026-04-12 06:42 -38.09237 147.10323 2692 ft 203 kts 276°
2026-04-12 06:42 -38.08945 147.08583 3820 ft 209 kts 279°
2026-04-12 06:43 -38.08587 147.06795 4943 ft 214 kts 279°
2026-04-12 06:43 -38.08237 147.04993 6068 ft 217 kts 278°
2026-04-12 06:43 -38.07895 147.03148 7162 ft 221 kts 277°
2026-04-12 06:43 -38.07552 147.01259 8166 ft 227 kts 276°
2026-04-12 06:44 -38.07197 146.99291 8844 ft 234 kts 276°
2026-04-12 06:44 -38.06825 146.97249 9006 ft 236 kts 276°
2026-04-12 06:44 -38.06458 146.95254 9007 ft 235 kts 276°
2026-04-12 06:44 -38.06087 146.93228 9004 ft 233 kts 276°
2026-04-12 06:45 -38.05727 146.91242 9004 ft 233 kts 276°
2026-04-12 06:45 -38.05360 146.89218 9024 ft 240 kts 276°
2026-04-12 06:45 -38.04983 146.87109 9885 ft 249 kts 275°
2026-04-12 06:45 -38.04600 146.85017 11086 ft 244 kts 275°
2026-04-12 06:46 -38.04227 146.82964 12051 ft 246 kts 274°
2026-04-12 06:46 -38.03847 146.80838 12936 ft 253 kts 274°
2026-04-12 06:46 -38.03454 146.78642 13884 ft 259 kts 274°
2026-04-12 06:46 -38.03049 146.76360 14617 ft 274 kts 274°
2026-04-12 06:47 -38.02621 146.73955 15311 ft 289 kts 275°
2026-04-12 06:47 -38.02170 146.71426 15947 ft 305 kts 275°
2026-04-12 06:47 -38.01691 146.68749 16580 ft 320 kts 275°
2026-04-12 06:47 -38.01186 146.65929 17196 ft 335 kts 275°
2026-04-12 06:48 -38.00664 146.63010 17770 ft 350 kts 276°
2026-04-12 06:48 -38.00118 146.59976 18607 ft 356 kts 275°
2026-04-12 06:48 -37.99560 146.56898 19543 ft 359 kts 275°
2026-04-12 06:48 -37.99011 146.53857 20415 ft 362 kts 275°
2026-04-12 06:49 -37.98448 146.50714 21164 ft 368 kts 275°
2026-04-12 06:49 -37.97881 146.47539 21977 ft 372 kts 275°
2026-04-12 06:49 -37.97311 146.44334 22740 ft 376 kts 274°
2026-04-12 06:49 -37.96738 146.41106 23494 ft 379 kts 274°
2026-04-12 06:50 -37.96158 146.37837 24204 ft 383 kts 274°
2026-04-12 06:50 -37.95580 146.34564 24896 ft 387 kts 275°
2026-04-12 06:50 -37.94987 146.31212 25592 ft 390 kts 275°
2026-04-12 06:50 -37.94397 146.27866 26286 ft 394 kts 274°
2026-04-12 06:51 -37.93801 146.24484 26999 ft 396 kts 274°
2026-04-12 06:51 -37.93198 146.21050 27591 ft 400 kts 274°
2026-04-12 06:51 -37.92601 146.17647 28251 ft 403 kts 274°
2026-04-12 06:51 -37.91985 146.14175 28878 ft 406 kts 274°
2026-04-12 06:52 -37.91258 146.10716 29457 ft 414 kts 277°
2026-04-12 06:52 -37.90326 146.07193 30037 ft 421 kts 281°
2026-04-12 06:52 -37.89297 146.03709 30527 ft 427 kts 282°
2026-04-12 06:52 -37.88223 146.00221 31240 ft 426 kts 282°
2026-04-12 06:53 -37.87153 145.96808 32118 ft 419 kts 282°
2026-04-12 06:53 -37.86084 145.93388 32824 ft 417 kts 282°
2026-04-12 06:53 -37.85036 145.90013 33457 ft 415 kts 282°
2026-04-12 06:53 -37.83991 145.86620 34071 ft 413 kts 282°
2026-04-12 06:54 -37.82952 145.83226 34562 ft 413 kts 282°
2026-04-12 06:54 -37.81930 145.79869 34978 ft 414 kts 282°
2026-04-12 06:54 -37.80897 145.76471 35531 ft 411 kts 282°
2026-04-12 06:54 -37.79881 145.73131 35914 ft 412 kts 282°
2026-04-12 06:55 -37.78843 145.69708 35963 ft 413 kts 282°
2026-04-12 06:55 -37.76790 145.62970 35971 ft 410 kts 282°
2026-04-12 06:56 -37.74724 145.56190 35975 ft 412 kts 282°
2026-04-12 06:56 -37.72724 145.49402 35979 ft 408 kts 278°
2026-04-12 06:57 -37.71455 145.42487 35983 ft 398 kts 271°
2026-04-12 06:57 -37.70739 145.35562 35988 ft 397 kts 269°
2026-04-12 06:58 -37.70134 145.28667 35988 ft 396 kts 269°
2026-04-12 06:58 -37.69523 145.21748 35991 ft 396 kts 269°
2026-04-12 06:59 -37.68899 145.14890 35993 ft 396 kts 269°
2026-04-12 06:59 -37.68260 145.08014 35993 ft 395 kts 269°
2026-04-12 07:00 -37.67288 144.97687 36000 ft 394 kts 269°
2026-04-12 07:00 -37.66631 144.90755 36003 ft 395 kts 270°
2026-04-12 07:01 -37.65779 144.83885 36010 ft 400 kts 275°
2026-04-12 07:01 -37.64124 144.77124 36009 ft 408 kts 281°
2026-04-12 07:02 -37.62136 144.70392 36008 ft 409 kts 282°
2026-04-12 07:02 -37.60148 144.63718 36005 ft 407 kts 282°
2026-04-12 07:03 -37.58173 144.56999 36008 ft 408 kts 281°
2026-04-12 07:03 -37.56224 144.50326 36004 ft 407 kts 281°
2026-04-12 07:04 -37.54271 144.43622 36002 ft 407 kts 281°
2026-04-12 07:04 -37.52331 144.36972 36007 ft 406 kts 281°
2026-04-12 07:05 -37.50372 144.30261 36010 ft 406 kts 282°
2026-04-12 07:05 -37.48431 144.23636 36009 ft 405 kts 282°
2026-04-12 07:06 -37.46478 144.16981 36008 ft 405 kts 282°
2026-04-12 07:06 -37.44529 144.10356 36012 ft 405 kts 282°
2026-04-12 07:07 -37.42570 144.03711 36013 ft 406 kts 282°
2026-04-12 07:07 -37.40609 143.97081 36023 ft 405 kts 282°
2026-04-12 07:08 -37.38641 143.90440 36020 ft 406 kts 282°
2026-04-12 07:08 -37.36680 143.83844 36031 ft 405 kts 282°
2026-04-12 07:09 -37.34712 143.77235 36033 ft 405 kts 282°
2026-04-12 07:09 -37.32735 143.70607 36033 ft 405 kts 282°
2026-04-12 07:10 -37.30748 143.63968 36041 ft 406 kts 282°
2026-04-12 07:10 -37.28764 143.57355 36044 ft 405 kts 282°
2026-04-12 07:11 -37.26769 143.50723 36048 ft 405 kts 282°
2026-04-12 07:11 -37.24780 143.44122 36045 ft 405 kts 282°
2026-04-12 07:12 -37.22785 143.37523 36048 ft 404 kts 282°
2026-04-12 07:12 -37.20775 143.30884 36046 ft 405 kts 283°
2026-04-12 07:13 -37.18769 143.24278 36049 ft 405 kts 283°
2026-04-12 07:13 -37.16759 143.17673 36052 ft 406 kts 283°
2026-04-12 07:14 -37.14732 143.11040 36052 ft 405 kts 283°
2026-04-12 07:14 -37.12712 143.04439 36061 ft 405 kts 283°
2026-04-12 07:15 -37.10684 142.97826 36060 ft 405 kts 283°
2026-04-12 07:15 -37.08657 142.91231 36316 ft 405 kts 283°
2026-04-12 07:16 -37.07645 142.87942 36136 ft 404 kts 283°
2026-04-12 07:16 -37.06632 142.84668 36078 ft 399 kts 283°
2026-04-12 07:16 -37.04621 142.78160 36072 ft 402 kts 283°
2026-04-12 07:17 -37.02602 142.71631 36071 ft 402 kts 283°
2026-04-12 07:17 -37.00589 142.65141 36074 ft 403 kts 283°
2026-04-12 07:18 -36.98539 142.58550 36075 ft 402 kts 283°
2026-04-12 07:18 -36.96505 142.52020 36075 ft 402 kts 283°
2026-04-12 07:19 -36.94465 142.45491 36079 ft 403 kts 283°
2026-04-12 07:19 -36.92426 142.38983 36080 ft 403 kts 284°
2026-04-12 07:20 -36.90376 142.32452 36084 ft 404 kts 284°
2026-04-12 07:20 -36.88308 142.25880 36084 ft 402 kts 284°
2026-04-12 07:21 -36.86256 142.19376 36086 ft 403 kts 284°
2026-04-12 07:21 -36.84207 142.12891 36088 ft 403 kts 284°
2026-04-12 07:22 -36.82143 142.06372 36091 ft 402 kts 284°
2026-04-12 07:22 -36.80090 141.99907 36094 ft 402 kts 284°
2026-04-12 07:23 -36.78029 141.93433 36093 ft 401 kts 284°
2026-04-12 07:23 -36.75963 141.86951 36093 ft 402 kts 284°
2026-04-12 07:24 -36.73895 141.80479 36094 ft 403 kts 284°
2026-04-12 07:24 -36.71815 141.73985 36103 ft 403 kts 285°
2026-04-12 07:25 -36.69730 141.67494 36110 ft 403 kts 284°
2026-04-12 07:25 -36.67647 141.61014 36109 ft 403 kts 284°
2026-04-12 07:26 -36.65552 141.54523 36107 ft 403 kts 285°
2026-04-12 07:26 -36.63466 141.48062 36109 ft 404 kts 285°
2026-04-12 07:27 -36.61365 141.41576 36114 ft 404 kts 285°
2026-04-12 07:27 -36.59271 141.35129 36116 ft 403 kts 285°
2026-04-12 07:28 -36.57159 141.28642 36117 ft 404 kts 285°
2026-04-12 07:28 -36.55045 141.22156 36119 ft 404 kts 285°
2026-04-12 07:29 -36.52936 141.15704 36119 ft 402 kts 285°
2026-04-12 07:29 -36.50820 141.09241 36120 ft 404 kts 285°
2026-04-12 07:30 -36.48718 141.02838 36121 ft 402 kts 285°
2026-04-12 07:30 -36.46605 140.96419 36121 ft 402 kts 285°
2026-04-12 07:31 -36.44470 140.89941 36122 ft 402 kts 285°
2026-04-12 07:31 -36.42338 140.83487 36123 ft 403 kts 285°
2026-04-12 07:32 -36.40176 140.77121 36127 ft 404 kts 288°
2026-04-12 07:32 -36.37322 140.71016 36132 ft 415 kts 297°
2026-04-12 07:33 -36.33807 140.65286 36132 ft 418 kts 301°
2026-04-12 07:33 -36.30195 140.59708 36130 ft 417 kts 301°
2026-04-12 07:34 -36.26540 140.54044 36131 ft 418 kts 301°
2026-04-12 07:34 -36.22928 140.48408 36135 ft 418 kts 300°
2026-04-12 07:35 -36.19316 140.42750 36139 ft 418 kts 300°
2026-04-12 07:35 -36.15710 140.37102 36142 ft 417 kts 300°
2026-04-12 07:36 -36.12110 140.31462 36140 ft 419 kts 301°
2026-04-12 07:36 -36.08492 140.25806 36143 ft 418 kts 301°
2026-04-12 07:37 -36.04913 140.20221 36143 ft 417 kts 301°
2026-04-12 07:37 -36.01302 140.14595 36143 ft 417 kts 301°
2026-04-12 07:38 -35.97679 140.08958 36147 ft 419 kts 301°
2026-04-12 07:38 -35.94051 140.03328 36146 ft 418 kts 301°
2026-04-12 07:39 -35.90442 139.97731 36149 ft 418 kts 301°
2026-04-12 07:39 -35.86792 139.92081 36151 ft 418 kts 301°
2026-04-12 07:40 -35.83160 139.86465 36154 ft 418 kts 301°
2026-04-12 07:40 -35.79537 139.80876 36156 ft 418 kts 301°
2026-04-12 07:41 -35.75888 139.75259 36158 ft 418 kts 301°
2026-04-12 07:41 -35.72262 139.69681 36161 ft 419 kts 301°
2026-04-12 07:42 -35.68614 139.64084 36164 ft 418 kts 302°
2026-04-12 07:43 -35.61384 139.53021 35736 ft 403 kts 302°
2026-04-12 07:43 -35.59640 139.50366 35253 ft 398 kts 302°
2026-04-12 07:43 -35.57890 139.47694 34645 ft 396 kts 302°
2026-04-12 07:44 -35.56188 139.45091 34004 ft 395 kts 302°
2026-04-12 07:44 -35.54459 139.42447 33333 ft 395 kts 303°
2026-04-12 07:44 -35.52752 139.39838 32676 ft 396 kts 302°
2026-04-12 07:44 -35.51024 139.37201 31984 ft 396 kts 302°
2026-04-12 07:45 -35.49295 139.34569 31274 ft 396 kts 303°
2026-04-12 07:45 -35.47570 139.31941 30553 ft 397 kts 303°
2026-04-12 07:45 -35.45835 139.29305 29805 ft 398 kts 303°
2026-04-12 07:45 -35.44103 139.26674 29039 ft 398 kts 303°
2026-04-12 07:46 -35.42350 139.24013 28517 ft 404 kts 303°
2026-04-12 07:46 -35.40554 139.21272 27923 ft 425 kts 303°
2026-04-12 07:46 -35.38686 139.18427 27262 ft 428 kts 303°
2026-04-12 07:46 -35.36837 139.15634 26632 ft 422 kts 303°
2026-04-12 07:47 -35.34998 139.12869 26018 ft 414 kts 303°
2026-04-12 07:47 -35.33193 139.10159 25416 ft 407 kts 303°
2026-04-12 07:47 -35.31416 139.07491 24818 ft 401 kts 303°
2026-04-12 07:47 -35.29659 139.04849 24223 ft 394 kts 303°
2026-04-12 07:48 -35.28155 139.02585 23704 ft 389 kts 303°
2026-04-12 07:48 -35.26462 139.00037 23116 ft 384 kts 303°
2026-04-12 07:48 -35.24786 138.97511 22531 ft 380 kts 303°
2026-04-12 07:48 -35.23138 138.95030 21960 ft 375 kts 303°
2026-04-12 07:49 -35.21518 138.92593 21392 ft 370 kts 303°
2026-04-12 07:49 -35.19885 138.90135 20817 ft 374 kts 303°
2026-04-12 07:49 -35.18224 138.87624 20229 ft 384 kts 303°
2026-04-12 07:49 -35.16561 138.85118 19627 ft 382 kts 303°
2026-04-12 07:50 -35.14894 138.82623 19028 ft 375 kts 303°
2026-04-12 07:50 -35.13273 138.80202 18462 ft 369 kts 303°
2026-04-12 07:50 -35.11665 138.77800 17888 ft 362 kts 303°
2026-04-12 07:50 -35.10075 138.75424 17320 ft 357 kts 303°
2026-04-12 07:51 -35.08520 138.73099 16734 ft 352 kts 303°
2026-04-12 07:51 -35.06997 138.70822 16194 ft 347 kts 303°
2026-04-12 07:51 -35.05472 138.68543 15623 ft 342 kts 303°
2026-04-12 07:51 -35.03982 138.66315 15079 ft 339 kts 303°
2026-04-12 07:52 -35.02462 138.64035 14520 ft 355 kts 303°
2026-04-12 07:52 -35.00921 138.61725 13944 ft 355 kts 303°
2026-04-12 07:52 -34.99361 138.59407 13375 ft 349 kts 304°
2026-04-12 07:52 -34.97841 138.57153 12821 ft 344 kts 304°
2026-04-12 07:53 -34.96313 138.54912 12256 ft 340 kts 305°
2026-04-12 07:53 -34.94627 138.52918 11697 ft 342 kts 317°
2026-04-12 07:53 -34.92580 138.51411 11139 ft 342 kts 326°
2026-04-12 07:53 -34.90517 138.50049 10680 ft 335 kts 326°
2026-04-12 07:54 -34.88511 138.48743 10500 ft 320 kts 327°
2026-04-12 07:54 -34.86454 138.47827 10377 ft 313 kts 347°
2026-04-12 07:54 -34.84289 138.47876 10250 ft 305 kts
2026-04-12 07:54 -34.82227 138.48196 10058 ft 295 kts
2026-04-12 07:55 -34.80193 138.48274 9695 ft 289 kts 353°
2026-04-12 07:55 -34.78200 138.48016 9321 ft 285 kts 346°
2026-04-12 07:55 -34.76263 138.47578 8965 ft 282 kts 343°
2026-04-12 07:55 -34.74332 138.47131 8613 ft 281 kts 348°
2026-04-12 07:56 -34.72398 138.47093 8269 ft 282 kts
2026-04-12 07:56 -34.70441 138.47461 7914 ft 282 kts
2026-04-12 07:56 -34.68528 138.47922 7560 ft 280 kts
2026-04-12 07:56 -34.66622 138.48351 7208 ft 278 kts
2026-04-12 07:57 -34.64726 138.48740 6864 ft 276 kts
2026-04-12 07:57 -34.62838 138.49107 6519 ft 274 kts
2026-04-12 07:57 -34.60955 138.49464 6175 ft 272 kts
2026-04-12 07:57 -34.59095 138.49811 5833 ft 270 kts
2026-04-12 07:58 -34.57240 138.50154 5487 ft 269 kts
2026-04-12 07:58 -34.55383 138.50499 5150 ft 267 kts
2026-04-12 07:58 -34.53593 138.51036 5003 ft 269 kts 18°
2026-04-12 07:58 -34.51805 138.51889 5007 ft 275 kts 22°
2026-04-12 07:59 -34.50065 138.52824 4793 ft 273 kts 24°
2026-04-12 07:59 -34.48323 138.53767 4544 ft 271 kts 23°
2026-04-12 07:59 -34.46605 138.54694 4298 ft 268 kts 25°
2026-04-12 07:59 -34.45059 138.55855 4048 ft 256 kts 41°
2026-04-12 08:00 -34.44095 138.57558 3803 ft 238 kts 73°
2026-04-12 08:00 -34.43914 138.59441 3569 ft 220 kts 97°
2026-04-12 08:00 -34.44107 138.61235 3323 ft 208 kts 102°
2026-04-12 08:00 -34.44341 138.62894 3284 ft 189 kts 107°
2026-04-12 08:01 -34.44853 138.64235 3283 ft 167 kts 136°
2026-04-12 08:01 -34.45750 138.65070 3306 ft 160 kts 156°
2026-04-12 08:01 -34.46773 138.65593 3301 ft 156 kts 168°
2026-04-12 08:01 -34.47836 138.65697 3303 ft 153 kts 189°
2026-04-12 08:02 -34.48871 138.65468 3303 ft 152 kts 192°
2026-04-12 08:02 -34.49905 138.65265 3311 ft 144 kts 190°
2026-04-12 08:02 -34.50893 138.65096 3302 ft 142 kts 191°
2026-04-12 08:02 -34.51868 138.64917 3301 ft 142 kts 190°
2026-04-12 08:03 -34.52863 138.64754 3274 ft 144 kts 189°
2026-04-12 08:03 -34.53851 138.64583 3070 ft 145 kts 190°
2026-04-12 08:03 -34.54842 138.64398 2877 ft 143 kts 191°
2026-04-12 08:03 -34.55822 138.64209 2696 ft 139 kts 191°
2026-04-12 08:04 -34.56764 138.64021 2545 ft 144 kts 191°
2026-04-12 08:04 -34.57782 138.63838 2379 ft 149 kts 190°
2026-04-12 08:04 -34.58813 138.63655 2229 ft 148 kts 189°
2026-04-12 08:04 -34.59833 138.63483 2034 ft 148 kts 189°
2026-04-12 08:05 -34.60860 138.63301 1811 ft 149 kts 190°
2026-04-12 08:05 -34.61870 138.63126 1652 ft 145 kts 189°
2026-04-12 08:05 -34.62855 138.62947 1563 ft 133 kts 191°
2026-04-12 08:05 -34.63739 138.62787 1359 ft 126 kts 190°
2026-04-12 08:06 -34.64589 138.62634 1144 ft 122 kts 190°
2026-04-12 08:06 -34.65443 138.62479 875 ft 123 kts 189°
2026-04-12 08:06 -34.66280 138.62334 676 ft 121 kts 189°
2026-04-12 08:06 -34.67096 138.62190 518 ft 116 kts 190°
2026-04-12 08:07 -34.67884 138.62045 378 ft 112 kts 190°
2026-04-12 08:07 -34.68648 138.61906 215 ft 110 kts 191°
2026-04-12 08:07 -34.69392 138.61768 101 ft 102 kts 191°
2026-04-12 08:07 -34.70052 138.61639 76 ft 91 kts 188°
2026-04-12 08:08 -34.70632 138.61539 71 ft 78 kts 187°
2026-04-12 08:08 -34.71110 138.61453 71 ft 51 kts 189°
2026-04-12 08:08 -34.71453 138.61394 72 ft 47 kts 188°
2026-04-12 08:08 -34.71723 138.61400 71 ft 29 kts 126°
2026-04-12 08:09 -34.71740 138.61632 72 ft 28 kts 64°
2026-04-12 08:09 -34.71598 138.61800 73 ft 28 kts 41°
2026-04-12 08:09 -34.71531 138.61873 72 ft 0 kts 43°
2026-04-12 08:10 -34.71482 138.61928 73 ft 22 kts 37°
2026-04-12 08:10 -34.71351 138.61861 72 ft 24 kts 307°
2026-04-12 08:10 -34.71222 138.61710 69 ft 26 kts 352°
2026-04-12 08:10 -34.71192 138.61737 69 ft 4 kts 223°